Weather History for KRMG - January, 2014

Change the Weather History Date:

Wednesday, January 29, 2014

  Actual Average Record
Temperature  
Mean Temperature 19 °F 42 °F  
Max Temperature 30 °F 53 °F 73 °F (2002)
Min Temperature 8 °F 31 °F 8 °F (2014)
Degree Days  
Heating Degree Days 46 23  
Month to date heating degree days 894 694  
Since 1 July heating degree days 2159 1994  
Moisture  
Dew Point 1 °F    
Average Humidity 54    
Maximum Humidity 76    
Minimum Humidity 31    
Precipitation  
Precipitation 0.00 in 0.19 in 1.23 in (2003)
Month to date precipitation 3.29 4.42  
Year to date precipitation 3.29 4.42  
Snow  
Snow 0.00 in - - ()
Month to date snowfall T  
Since 1 July snowfall T  
Snow Depth 0.00 in    
Sea Level Pressure  
Sea Level Pressure 30.36 in    
Wind  
Wind Speed 7 mph (North)    
Max Wind Speed 17 mph    
Max Gust Speed 21 mph    
Visibility 10 miles    
Events      
T = Trace of Precipitation, MM = Missing Value Source: NWS Daily Summary

Daily Weather History Graph

Daily Weather History Graph

Search for Another Location

Airport or City:

Trip Planner

Search our weather history database for the weather conditions in past years. The results will help you decide how hot, cold, wet, or windy it might be!

Date:

Astronomy

Jan. 29, 2014 Rise Set
Actual Time 7:40 AM EST 6:07 PM EST
Civil Twilight 7:13 AM EST 6:34 PM EST
Nautical Twilight 6:43 AM EST 7:04 PM EST
Astronomical Twilight 6:13 AM EST 7:34 PM EST
Moon 6:15 AM EST (1/29) 5:06 PM EST (1/29)
Length of Visible Light 11h 20m
Length of Day
10h 27m
Waning Crescent, 2% of the Moon is Illuminated
Jan 29
Waning Crescent
Jan 30
New
Feb 6
First Quarter
Feb 14
Full
Feb 22
Last Quarter

Hourly Weather History & Observations

Time (EST) Temp. Windchill Dew Point Humidity Pressure Visibility Wind Dir Wind Speed Gust Speed Precip Events Conditions
12:53 AM 18.0 °F 5.4 °F 7.0 °F 62% 30.31 in 10.0 mi NNW 11.5 mph - N/A   Clear
1:53 AM 16.0 °F 4.4 °F 3.9 °F 59% 30.31 in 10.0 mi North 9.2 mph - N/A   Clear
2:53 AM 15.1 °F 2.5 °F 3.0 °F 59% 30.32 in 10.0 mi North 10.4 mph - N/A   Clear
3:53 AM 14.0 °F 2.0 °F 1.9 °F 59% 30.32 in 10.0 mi North 9.2 mph - N/A   Clear
4:53 AM 12.9 °F -0.2 °F -0.0 °F 56% 30.33 in 10.0 mi North 10.4 mph - N/A   Clear
5:53 AM 12.9 °F 0.7 °F -0.9 °F 54% 30.34 in 10.0 mi North 9.2 mph - N/A   Clear
6:53 AM 12.0 °F -2.0 °F -2.9 °F 51% 30.36 in 10.0 mi North 11.5 mph - N/A   Clear
7:53 AM 10.9 °F 0.2 °F -2.9 °F 54% 30.38 in 10.0 mi North 6.9 mph - N/A   Clear
8:53 AM 12.0 °F -1.3 °F -2.0 °F 53% 30.41 in 10.0 mi North 10.4 mph - N/A   Clear
9:53 AM 15.1 °F 1.1 °F -0.9 °F 49% 30.41 in 10.0 mi NNE 12.7 mph - N/A   Clear
10:53 AM 19.0 °F 10.0 °F -2.9 °F 38% 30.41 in 10.0 mi North 6.9 mph - N/A   Clear
11:53 AM 21.9 °F 15.7 °F -2.9 °F 34% 30.41 in 10.0 mi North 4.6 mph - N/A   Clear
12:53 PM 23.0 °F 13.1 °F -2.0 °F 34% 30.37 in 10.0 mi NW 9.2 mph - N/A   Clear
1:53 PM 27.0 °F 20.5 °F -0.9 °F 30% 30.37 in 10.0 mi NE 5.8 mph - N/A   Clear
2:53 PM 28.0 °F 21.7 °F 1.0 °F 31% 30.35 in 10.0 mi North 5.8 mph - N/A   Clear
3:53 PM 28.9 °F 21.9 °F 1.9 °F 32% 30.35 in 10.0 mi North 6.9 mph - N/A   Clear
4:53 PM 28.0 °F 19.3 °F 1.0 °F 31% 30.35 in 10.0 mi NW 9.2 mph - N/A   Clear
5:53 PM 26.1 °F 16.8 °F -0.9 °F 31% 30.35 in 10.0 mi NNW 9.2 mph - N/A   Clear
6:53 PM 24.1 °F - -0.0 °F 35% 30.35 in 10.0 mi Calm Calm - N/A   Clear
7:53 PM 19.0 °F - 3.9 °F 52% 30.35 in 10.0 mi Calm Calm - N/A   Clear
8:53 PM 16.0 °F - 6.1 °F 65% 30.35 in 10.0 mi Calm Calm - N/A   Clear
9:53 PM 12.9 °F - 6.1 °F 74% 30.35 in 10.0 mi Calm Calm - N/A   Clear
10:53 PM 10.9 °F - 3.0 °F 70% 30.37 in 10.0 mi Calm Calm - N/A   Clear
11:53 PM 9.0 °F - 5.0 °F 84% 30.37 in 10.0 mi Calm Calm - N/A   Clear